Total_Precipitation_Accumulation
2.06 2.44 2.81 3.27 3.72 4.26 5.07 5.76 6.35 6.46 6.33 5.99 5.63 5.38 4.93 4.65 4.37 4.09 3.93 3.68 3.42 3.32 3.71 3.44 3.81 3.66 3.63 3.49 3.47 3.67 3.71 3.34 3.52 3.87 3.41 2.84 2.47 2.37 2.20 2.19 2.34 2.25 2.39
1.98 2.36 2.91 3.22 3.58 4.15 4.76 5.14 5.22 5.03 4.97 5.05 4.97 4.70 4.70 4.53 4.48 4.31 4.16 3.63 3.46 3.38 3.17 3.41 3.25 3.24 3.42 3.23 3.19 3.40 3.39 3.04 3.35 3.65 3.74 3.17 2.89 2.41 1.82 2.02 2.20 2.31 2.58
1.63 2.00 2.57 2.90 3.10 3.63 4.00 4.00 3.96 3.92 4.05 4.15 4.11 4.16 4.41 4.50 4.58 4.54 4.31 3.87 3.67 3.55 3.37 3.25 3.08 3.06 2.90 3.10 3.16 3.21 3.34 3.30 3.19 3.25 3.60 3.31 2.94 2.47 1.98 1.90 2.14 2.48 2.78
1.37 1.68 2.04 2.29 2.59 2.89 3.05 3.04 3.15 3.27 3.35 3.45 3.51 3.42 3.45 3.72 4.00 4.25 4.35 4.25 3.98 3.74 3.43 3.21 2.99 2.82 2.67 3.00 2.71 2.84 3.17 3.40 3.08 2.99 2.92 2.91 3.05 2.95 2.55 2.09 1.95 2.20 2.42
1.42 1.61 1.74 1.95 2.06 2.15 2.30 2.37 2.62 3.04 3.23 3.35 3.52 3.47 3.21 3.21 3.30 3.44 3.64 3.66 3.67 3.49 3.15 3.04 2.95 2.75 2.58 2.65 2.68 3.02 3.03 3.01 2.93 2.99 2.93 3.02 3.21 3.00 2.86 2.52 2.38 2.45 2.31
1.14 1.36 1.64 1.76 1.75 1.75 1.91 2.11 2.40 2.94 3.25 3.37 3.32 3.35 3.37 3.43 3.31 3.26 3.35 3.27 3.24 3.14 2.88 2.74 2.87 2.75 2.63 2.69 2.69 2.80 2.88 3.03 3.09 3.07 3.05 3.10 3.09 3.12 3.31 2.95 2.69 2.64 2.31
0.95 0.95 1.14 1.39 1.41 1.39 1.55 1.79 2.01 2.48 2.83 3.01 2.90 2.86 3.06 3.26 3.15 2.98 2.92 2.89 2.72 2.62 2.57 2.62 2.76 2.64 2.68 2.74 2.86 2.89 2.86 2.99 3.02 2.94 3.03 3.12 3.07 3.20 3.35 3.26 2.88 2.61 2.30
0.73 0.69 0.75 0.94 1.20 1.23 1.31 1.44 1.68 1.96 2.29 2.51 2.58 2.66 2.85 2.98 2.94 3.15 2.91 2.76 2.40 2.25 2.32 2.51 2.55 2.50 2.49 2.52 2.97 2.96 2.96 3.06 2.98 2.81 3.16 3.18 2.96 3.16 3.33 3.46 3.52 3.13 2.84
0.65 0.68 0.74 0.94 1.02 1.01 1.10 1.25 1.46 1.66 1.88 2.14 2.37 2.46 2.43 2.44 2.61 2.80 2.75 2.60 2.50 2.23 2.28 2.36 2.57 2.66 2.75 2.82 3.01 2.95 2.98 3.18 3.11 3.04 3.25 3.19 2.99 3.04 3.13 3.38 3.69 3.78 3.50
0.69 0.69 0.70 0.76 0.81 0.87 0.98 1.19 1.40 1.43 1.65 2.04 2.34 2.31 2.38 2.31 2.46 2.44 2.43 2.46 2.37 2.31 2.37 2.38 2.47 2.64 2.75 2.81 2.97 2.96 3.03 3.22 3.22 3.29 3.36 3.21 2.94 3.12 3.12 3.23 3.59 3.92 3.99
0.74 0.70 0.70 0.70 0.81 0.75 0.85 1.05 1.18 1.31 1.62 2.00 2.35 2.44 2.37 2.34 2.41 2.24 2.19 2.30 2.31 2.30 2.38 2.41 2.41 2.38 2.52 2.74 2.97 2.90 3.07 3.19 3.21 3.18 3.10 3.01 3.06 3.26 3.18 3.31 3.47 3.73 4.00
0.57 0.54 0.53 0.60 0.61 0.62 0.74 1.04 1.35 1.71 1.93 2.29 2.67 2.76 2.54 2.33 2.18 1.98 1.97 2.13 2.29 2.34 2.35 2.37 2.36 2.29 2.40 2.69 2.84 2.92 3.20 3.34 3.21 3.12 3.12 2.97 3.10 3.20 3.18 3.26 3.23 3.35 3.71
0.58 0.56 0.53 0.63 0.63 0.61 0.63 0.77 0.94 1.35 1.71 2.14 2.54 2.50 2.26 2.04 2.00 1.97 2.00 2.14 2.33 2.35 2.32 2.35 2.37 2.46 2.62 2.82 2.93 3.03 3.20 3.17 3.05 3.09 3.01 2.88 3.00 2.89 2.96 3.01 3.01 3.01 3.15
0.71 0.64 0.62 0.62 0.62 0.62 0.60 0.70 0.81 0.91 1.19 1.71 2.12 2.06 1.87 1.81 1.84 1.88 1.93 1.96 2.08 2.14 2.19 2.35 2.52 2.64 2.80 2.91 2.96 3.01 3.00 2.96 2.82 2.72 2.65 2.68 2.83 2.90 2.92 2.82 2.80 2.88 3.04
0.71 0.65 0.65 0.74 0.76 0.81 0.82 0.82 0.84 0.87 1.08 1.63 1.95 1.93 1.81 1.80 1.77 1.75 1.88 1.96 2.01 2.05 2.29 2.44 2.51 2.56 2.58 2.63 2.84 2.82 2.72 2.72 2.57 2.44 2.28 2.32 2.67 2.82 2.80 2.59 2.72 2.82 2.88
0.69 0.66 0.59 0.70 0.81 0.89 0.92 0.93 0.99 1.05 1.18 1.56 1.88 1.87 1.75 1.69 1.62 1.69 1.83 1.96 2.04 2.22 2.41 2.40 2.40 2.35 1.98 2.09 2.27 2.29 2.29 2.34 2.31 2.18 2.14 2.13 2.21 2.26 2.31 2.33 2.37 2.46 2.53
0.67 0.68 0.72 0.81 1.01 0.95 0.99 1.07 1.00 1.07 1.26 1.63 1.89 1.95 1.85 1.79 1.74 1.67 1.84 2.03 2.26 2.45 2.54 2.48 2.43 2.26 2.12 2.01 1.91 1.90 1.95 2.10 2.12 2.15 2.22 1.92 1.73 1.94 1.96 2.14 2.15 2.07 2.18
0.75 0.84 0.83 0.90 0.99 0.98 1.04 1.11 1.12 1.17 1.34 1.63 1.89 2.02 1.97 1.94 2.01 2.02 2.08 2.27 2.52 2.70 2.72 2.67 2.56 2.43 2.28 2.18 1.99 1.98 1.90 1.98 2.01 2.04 2.08 2.03 1.91 1.89 2.04 2.16 2.09 1.93 1.90
0.89 0.94 1.04 1.09 1.18 1.17 1.13 1.20 1.36 1.42 1.48 1.57 1.85 2.06 2.13 2.17 2.14 2.18 2.45 2.66 2.82 2.86 2.81 2.88 2.79 2.65 2.58 2.39 2.04 1.88 1.79 1.95 1.98 1.98 1.93 1.89 1.82 1.95 1.88 1.83 1.82 1.83 1.83
1.05 1.05 1.12 1.19 1.23 1.26 1.33 1.40 1.54 1.70 1.83 1.92 2.08 2.37 2.57 2.70 2.73 2.79 2.86 2.93 3.03 2.98 3.00 2.91 2.85 2.73 2.68 2.59 2.06 1.79 1.70 1.88 1.91 1.97 1.92 1.82 1.67 1.71 1.64 1.56 1.69 1.69 1.72
0.98 1.08 1.13 1.23 1.30 1.33 1.48 1.76 1.91 2.01 2.19 2.35 2.43 2.69 3.04 3.23 3.18 3.21 3.11 3.03 3.02 3.02 3.02 2.90 2.80 2.72 2.62 2.53 2.08 1.90 1.85 1.97 2.06 1.99 1.91 1.84 1.74 1.55 1.52 1.48 1.50 1.58 1.66
0.94 1.06 1.14 1.22 1.41 1.68 1.88 2.16 2.35 2.40 2.49 2.65 2.95 3.19 3.37 3.20 3.10 3.29 3.19 3.20 3.25 3.21 3.09 2.99 2.89 2.93 2.81 2.55 2.22 2.01 1.99 2.06 2.11 2.14 2.09 2.01 1.83 1.60 1.54 1.44 1.41 1.43 1.36
0.95 1.03 1.13 1.31 1.53 1.84 2.24 2.49 2.57 2.77 2.77 2.83 3.05 3.13 3.19 3.30 3.44 3.52 3.40 3.34 3.32 3.24 3.04 2.94 2.75 2.69 2.79 2.78 2.37 2.08 2.07 2.10 2.01 2.14 2.25 2.02 1.79 1.62 1.44 1.44 1.48 1.38 1.26
1.04 1.09 1.20 1.41 1.72 2.03 2.38 2.54 2.60 2.64 2.67 2.70 2.74 2.86 3.04 3.17 3.30 3.53 3.53 3.40 3.22 3.11 3.02 2.97 2.84 2.77 2.81 2.74 2.36 2.05 2.01 2.06 1.98 2.01 2.12 2.00 1.82 1.67 1.52 1.48 1.45 1.36 1.38
1.13 1.23 1.33 1.45 1.62 1.91 2.21 2.36 2.52 2.61 2.77 2.80 2.71 2.63 2.67 2.80 2.95 3.08 3.16 3.10 3.06 2.95 2.82 2.65 2.59 2.56 2.56 2.57 2.34 2.07 2.01 2.14 2.23 2.20 2.16 2.10 1.95 1.80 1.68 1.63 1.65 1.70 1.70
1.09 1.22 1.35 1.52 1.71 1.91 2.12 2.25 2.44 2.58 2.74 2.75 2.63 2.58 2.53 2.60 2.65 2.66 2.63 2.51 2.41 2.29 2.13 2.05 1.99 1.95 2.02 2.21 2.07 1.92 1.96 2.16 2.31 2.19 2.06 2.15 2.09 1.95 1.85 1.82 1.82 1.84 1.80